Theta_e
301 301 302 302 302 304 305 305 305 304 304 303 303 302 302 301 297 291 288 290 291 285 286 289 290 287 287 288 284 287 286 288 287 286 286 287 286 288 287 290 290 289 287 287 287 286 285 299 298 295 302 300 302 302
299 300 301 301 302 303 304 304 304 304 303 303 303 302 302 301 298 293 288 291 292 287 285 289 291 293 292 292 289 288 288 288 289 286 285 285 284 287 286 283 293 288 292 290 291 292 299 300 299 302 301 301 303 303
296 298 300 301 301 302 303 304 303 303 303 303 303 303 302 301 298 293 288 290 289 286 284 286 285 289 292 293 294 286 287 290 291 293 287 286 282 287 284 285 289 293 296 293 293 296 297 299 302 301 301 301 302 303
296 296 298 301 301 302 302 303 303 303 303 303 303 302 302 301 298 294 290 290 289 287 281 283 290 289 293 293 292 292 291 294 294 293 287 286 282 289 283 287 286 291 290 291 291 296 297 299 299 299 300 302 302 302
296 296 297 299 301 302 303 303 303 302 302 302 302 302 302 300 297 292 291 291 291 287 281 282 287 289 291 292 291 291 290 289 289 286 285 283 288 287 288 288 285 289 288 290 290 297 296 297 299 299 300 300 301 301
297 298 298 298 301 302 302 302 302 302 302 302 302 302 301 298 297 291 285 290 293 292 284 279 286 287 289 289 289 289 290 289 289 287 286 288 292 289 283 281 288 292 297 299 295 299 296 297 298 299 300 300 302 300
299 299 298 300 301 301 302 302 302 302 302 302 302 301 299 297 290 287 286 290 294 292 285 280 280 285 287 288 287 286 288 288 289 288 286 287 288 290 285 281 287 290 292 294 298 298 295 298 295 298 299 301 300 299
299 299 299 300 300 301 301 301 301 301 301 301 301 299 299 298 296 290 293 296 292 288 287 279 279 282 288 285 283 287 286 287 288 287 289 286 287 287 281 286 288 290 291 292 293 294 294 295 295 296 298 301 298 297
299 299 299 300 300 300 301 301 300 300 301 300 299 298 293 291 287 289 296 295 293 287 280 280 277 276 286 285 286 286 287 280 287 283 285 287 283 281 285 288 289 290 290 291 293 294 296 296 297 299 299 300 299 297
298 299 298 299 300 300 300 300 300 300 299 298 294 287 283 287 295 295 288 284 283 285 284 278 283 279 284 282 283 283 286 282 279 283 287 282 282 287 289 290 292 292 293 293 291 291 293 294 296 298 298 300 301 299
298 299 299 298 299 300 300 300 300 298 297 286 283 281 286 295 287 283 278 276 277 276 282 282 282 280 284 280 280 283 281 283 278 282 281 281 281 286 291 292 294 295 295 294 296 295 294 294 293 296 295 298 298 297
297 299 299 298 300 301 300 299 298 291 287 287 288 291 290 284 279 274 274 277 276 275 280 279 281 282 283 284 281 282 279 281 276 286 282 279 285 288 289 289 290 292 294 293 294 295 294 294 295 295 296 296 298 297
296 298 298 300 299 299 299 297 296 295 294 289 285 282 278 278 270 271 269 273 275 279 280 281 280 282 282 283 281 280 277 277 283 278 279 281 286 287 288 288 289 289 289 292 292 292 292 291 292 293 293 295 298 296
296 297 299 299 299 298 297 296 296 293 288 281 275 271 274 273 275 276 276 277 280 281 281 282 281 280 282 279 280 277 281 281 275 274 277 282 284 287 288 289 288 286 287 290 290 290 289 289 288 289 290 291 292 293
295 297 299 299 298 297 296 296 295 290 285 278 278 272 274 279 280 280 281 280 281 283 283 282 282 281 279 278 279 280 277 274 277 277 282 285 286 286 287 287 288 288 288 290 290 288 286 286 286 286 288 290 292 289
295 299 297 298 297 297 296 294 290 288 284 280 280 277 279 278 277 280 280 280 284 285 285 284 281 279 277 279 276 275 276 275 280 283 285 286 286 286 287 287 288 288 290 289 289 288 287 285 284 285 284 285 286 287
293 288 298 297 296 296 295 289 287 282 282 279 277 281 280 279 279 280 282 282 285 284 280 282 277 277 282 277 277 281 279 282 285 285 285 286 286 287 288 287 288 288 288 289 288 287 286 286 284 285 285 286 287 288
290 296 297 296 293 290 287 287 283 281 278 279 277 279 280 281 281 281 283 286 286 284 283 281 284 279 278 277 278 282 284 286 286 286 286 287 287 288 287 287 287 287 288 288 287 286 286 285 285 286 285 284 284 285
295 294 295 293 291 286 283 283 284 278 278 280 281 281 281 281 283 284 284 286 287 287 285 282 280 279 280 284 284 285 285 286 286 286 286 287 287 287 287 287 287 287 287 287 288 288 287 286 285 285 285 284 283 283
295 294 294 294 290 284 280 281 285 280 277 280 281 280 281 281 283 283 283 284 286 285 282 280 281 283 284 285 286 286 286 286 285 284 285 287 287 286 286 286 287 288 287 287 288 286 287 286 285 285 284 284 283 282
292 292 293 291 287 286 282 280 280 280 280 279 281 280 279 281 280 280 280 283 282 281 280 283 284 286 286 286 286 286 286 285 285 285 285 285 288 287 286 287 287 287 286 287 287 288 285 286 286 285 284 284 284 283
288 290 286 289 284 283 282 283 281 281 279 279 280 279 278 277 277 279 281 280 279 281 283 283 284 286 286 286 287 287 287 287 286 285 283 285 284 286 287 288 287 286 287 287 288 287 289 287 285 285 284 283 282 280
290 289 285 284 280 279 278 283 279 279 275 275 278 277 277 278 280 282 277 279 281 283 284 283 284 286 285 286 286 286 286 286 285 285 285 286 287 287 287 287 287 286 286 288 290 288 288 284 283 282 282 281 280 278
290 283 280 278 278 273 280 276 278 278 277 276 275 271 275 277 281 278 276 279 282 284 283 283 283 283 283 283 283 284 286 286 286 286 287 286 285 286 287 287 287 288 288 289 289 288 284 283 282 280 280 279 278 277
279 277 278 272 276 273 270 272 274 274 269 272 271 271 273 278 273 272 274 277 282 282 282 283 283 283 282 283 284 285 286 287 286 286 288 288 287 286 286 287 287 288 289 287 286 285 282 283 281 279 278 278 277 276
274 276 274 271 273 272 272 269 270 270 270 268 272 275 277 274 270 272 275 279 280 282 281 281 282 282 282 284 284 285 286 287 287 286 287 288 287 285 285 285 285 287 289 287 286 284 282 281 280 278 277 277 276 277
272 272 277 279 279 278 274 274 276 273 268 268 271 270 271 267 269 275 280 282 282 284 285 285 284 284 284 285 286 287 288 287 288 288 290 289 289 288 286 285 285 287 286 285 284 283 282 280 279 278 277 278 278 277
273 276 271 275 275 277 272 270 270 270 272 276 272 268 270 271 273 279 281 283 284 285 285 286 286 286 286 286 287 288 287 286 286 285 286 286 286 286 286 286 285 284 285 285 284 283 281 280 279 279 278 277 277 277
275 277 276 266 268 270 270 271 272 275 278 276 272 271 273 277 280 281 283 283 284 284 283 284 285 286 286 287 287 287 287 285 284 282 281 282 285 285 284 284 284 284 284 283 282 282 281 280 280 279 278 277 277 277
275 277 270 265 269 270 273 274 274 274 277 278 278 278 278 280 283 284 284 284 283 283 285 285 285 285 284 285 285 284 283 284 284 284 282 284 285 284 283 283 282 282 282 281 280 280 279 279 278 278 276 275 275 274
277 274 270 270 268 270 271 271 272 275 275 277 277 278 278 279 279 282 284 285 285 284 283 283 282 282 282 282 281 281 282 285 285 285 286 285 284 283 283 282 282 281 280 279 279 278 277 276 275 275 274 274 274 274
271 269 269 268 270 272 278 276 274 275 275 275 274 275 277 275 273 279 278 280 281 280 280 280 279 280 281 281 282 284 285 286 286 285 285 284 283 283 282 281 281 280 279 278 277 277 276 275 275 274 273 273 273 273
275 274 270 266 268 269 269 270 271 270 269 269 271 270 273 273 273 278 279 283 284 284 284 285 285 285 285 285 285 285 285 285 285 284 284 284 283 282 282 281 281 279 278 278 277 277 276 275 275 274 274 273 273 273
Wind_Speed
6 7 8 9 10 13 17 24 28 29 30 27 25 23 21 18 14 5 2 2 3 2 1 2 2 3 3 2 3 1 1 1 2 4 3 2 3 2 4 4 4 3 4 5 3 6 12 5 3 5 4 1 3 4
7 5 8 9 9 12 19 23 25 30 28 26 25 24 22 19 14 7 3 1 1 4 2 1 2 1 2 3 3 1 1 2 1 1 1 2 2 1 3 4 4 4 3 2 6 4 4 6 6 7 8 8 4 4
8 8 6 10 9 15 17 20 25 28 28 28 27 25 23 20 14 7 3 3 4 3 2 1 3 1 1 4 2 2 2 1 3 2 1 1 4 2 4 4 4 3 6 5 5 1 10 15 11 13 13 13 14 8
10 10 9 7 10 16 18 19 26 30 32 29 27 26 24 20 15 8 3 2 3 3 2 1 1 4 3 6 7 5 4 3 3 1 1 2 2 4 3 3 3 4 9 5 9 13 12 2 13 18 18 15 12 6
11 12 12 10 11 15 17 17 27 29 31 29 28 26 25 21 17 9 4 1 1 3 3 2 3 3 4 7 7 7 7 4 2 2 3 4 3 4 3 4 10 7 8 5 5 4 4 12 15 21 18 16 15 10
15 14 13 13 13 16 18 17 31 30 32 30 28 27 26 23 16 5 3 1 2 2 3 0 2 2 1 5 8 8 6 3 3 3 3 4 4 4 5 5 7 11 12 10 10 4 3 13 15 18 16 18 16 12
14 12 12 11 15 18 17 26 30 30 30 29 28 28 26 19 5 3 3 3 6 2 2 1 3 1 1 2 2 2 5 3 3 3 5 5 4 6 5 15 12 13 14 15 10 6 9 9 12 18 21 19 13 10
8 12 12 16 17 14 21 29 28 31 31 29 28 29 22 18 11 5 4 9 3 4 2 2 2 3 1 1 1 2 3 3 4 4 2 4 3 6 10 14 15 18 18 19 19 16 16 17 15 11 18 15 12 10
7 12 11 13 17 15 19 34 34 34 32 34 31 25 7 5 3 2 11 9 3 3 3 2 2 2 1 1 1 2 2 3 2 5 5 6 6 10 9 9 14 15 14 15 13 15 12 14 9 11 11 12 10 9
7 13 13 10 11 23 21 35 36 37 38 35 13 5 4 1 15 11 5 3 4 2 1 2 1 3 1 1 1 2 2 4 4 6 4 6 11 19 19 19 17 13 14 16 18 22 15 14 10 4 5 6 10 8
7 15 14 3 11 26 33 36 40 40 31 4 4 4 1 11 3 3 3 2 0 0 3 3 6 5 2 2 1 2 1 2 4 4 6 5 5 6 8 11 10 10 10 17 21 25 21 16 15 11 8 9 7 9
12 8 10 8 21 30 42 41 41 10 5 9 13 7 3 3 3 5 3 2 4 4 4 4 4 5 2 1 3 2 4 2 6 2 5 4 3 9 10 11 12 14 13 13 9 9 7 8 9 9 10 10 11 9
11 5 10 28 30 39 42 40 24 34 28 5 6 5 4 2 4 7 9 4 4 5 5 5 3 2 2 2 3 3 4 5 2 2 4 2 6 3 6 9 12 14 15 12 9 8 7 7 7 5 8 8 10 9
12 8 8 42 42 43 39 35 38 17 6 5 5 7 5 5 6 7 6 6 4 4 6 5 3 2 2 4 3 5 5 2 3 3 1 2 6 6 6 6 9 15 13 12 8 7 8 9 10 9 7 7 7 11
11 8 28 37 42 40 36 35 16 5 4 4 5 6 6 3 2 4 4 3 3 5 6 3 2 2 2 3 4 4 4 5 5 3 2 3 5 4 7 5 8 10 12 9 9 8 8 8 10 10 9 10 8 7
10 22 19 39 36 35 31 13 6 3 3 3 3 4 3 4 3 3 5 4 4 4 3 2 3 4 5 5 5 7 4 4 2 3 3 3 3 5 7 6 7 8 9 9 10 11 11 10 8 9 10 7 6 9
8 1 35 36 34 29 19 6 5 6 2 3 1 1 3 2 4 5 5 4 5 6 5 3 5 8 3 4 4 5 5 4 3 3 3 5 5 7 5 7 7 7 7 8 8 7 9 10 9 7 7 6 2 4
1 22 37 35 23 13 3 3 4 3 3 2 3 3 2 1 3 3 4 4 5 3 5 4 2 5 5 3 4 3 4 2 2 4 5 5 5 8 7 9 7 5 7 8 7 6 7 8 10 7 7 3 4 5
17 24 36 31 13 7 5 2 1 3 2 2 2 2 2 1 2 0 3 4 1 1 3 2 4 5 5 4 4 3 3 3 2 3 4 5 6 8 10 9 8 7 7 7 7 5 5 7 6 6 4 1 2 4
33 36 33 21 8 5 5 2 1 3 3 2 2 4 2 2 2 2 3 3 4 3 4 6 7 4 4 3 4 3 2 3 2 3 6 7 4 7 7 7 8 9 8 8 7 6 4 4 3 4 3 3 4 5
22 19 17 7 3 4 4 4 3 2 4 3 3 4 2 1 2 2 2 4 3 4 5 6 5 5 5 4 3 3 5 5 6 5 8 9 9 6 8 7 9 7 6 6 7 6 5 6 4 3 4 4 4 5
7 11 4 6 5 3 4 0 2 3 3 2 4 2 2 2 2 3 3 4 5 7 5 6 8 8 8 10 9 8 8 5 6 6 8 8 8 9 9 8 6 7 6 7 7 7 6 5 3 3 5 5 6 7
15 4 4 3 4 3 2 1 2 1 3 3 2 3 2 2 2 2 3 4 5 6 7 8 12 13 11 12 8 5 6 6 6 6 7 8 9 10 10 9 7 8 8 7 6 7 6 5 6 5 5 6 7 8
9 5 3 3 3 3 2 1 1 3 2 3 3 2 3 3 2 1 4 4 6 2 4 8 6 6 3 5 5 8 8 6 6 7 7 8 9 11 8 9 8 8 9 7 5 5 5 6 9 8 8 9 9 9
6 3 4 3 1 5 4 2 1 2 2 3 3 2 3 2 2 3 5 5 8 5 6 5 5 6 7 7 4 7 6 6 7 8 10 6 9 8 8 8 9 9 6 8 8 6 6 7 8 9 10 10 12 12
5 2 4 5 4 4 5 5 5 5 4 2 4 1 1 2 1 7 4 4 4 3 4 4 5 4 6 8 9 7 8 5 6 8 10 7 7 7 9 9 9 9 7 8 7 8 8 9 10 13 10 12 13 13
5 3 2 2 4 5 4 3 3 3 4 5 3 3 3 3 7 6 4 4 4 4 4 4 4 5 7 7 6 8 6 6 9 9 4 5 6 7 9 9 11 6 4 7 7 9 11 11 11 11 11 11 12 13
3 4 8 5 3 1 5 3 5 7 4 3 5 5 8 9 8 5 6 4 5 4 5 6 6 7 8 9 9 7 5 6 7 6 7 9 8 7 7 5 4 6 4 6 7 7 9 10 10 11 12 11 10 11
2 3 5 3 3 2 4 5 6 4 4 6 6 6 7 5 4 4 6 4 2 4 8 10 10 7 8 9 7 7 7 6 7 16 17 11 8 4 4 3 2 3 3 5 7 8 10 10 11 11 13 11 11 11
4 3 5 2 5 6 5 6 4 3 2 3 2 4 4 5 6 4 5 8 8 11 12 10 10 7 9 9 9 7 6 6 7 9 9 9 4 1 3 4 5 5 5 7 8 10 14 12 12 11 12 11 11 11
3 2 4 2 4 3 3 2 2 2 2 3 4 5 8 6 5 4 9 12 10 8 7 9 7 5 6 7 7 8 7 3 6 10 8 2 3 4 5 5 5 6 7 8 9 10 11 11 10 12 13 14 16 14
2 4 5 3 4 2 0 2 1 3 3 4 5 4 3 3 6 5 1 1 1 2 3 3 3 5 4 5 5 5 6 3 3 4 6 4 5 6 7 6 7 7 8 9 9 11 13 13 11 12 14 17 16 16
3 2 2 2 3 3 2 1 2 5 3 3 4 3 3 4 6 5 2 3 3 3 4 5 5 5 5 5 4 3 3 1 3 6 8 9 10 9 7 7 7 9 11 10 10 11 13 16 14 14 15 15 16 16
Wind_Direction
260 240 230 226 231 203 192 183 173 171 172 169 163 158 156 155 144 103 96 354 106 107 150 181 144 136 112 111 147 169 95 151 23 197 228 211 188 255 291 295 291 251 183 200 183 206 251 197 136 211 245 225 205 203
357 295 232 235 235 197 188 200 190 165 163 161 159 157 156 153 145 112 103 343 57 85 107 333 289 283 193 163 131 49 357 120 141 225 48 3 307 287 234 257 300 253 232 240 221 238 335 337 334 348 345 314 290 251
323 322 300 229 236 188 172 188 181 162 161 164 160 157 154 154 144 108 116 130 64 76 22 2 247 327 189 210 169 133 254 248 155 60 111 68 254 305 242 224 272 265 29 256 308 223 334 314 324 0 346 324 309 287
305 300 301 260 216 191 181 185 175 171 165 159 154 154 153 146 128 103 102 135 90 96 112 254 318 245 169 173 188 189 141 114 99 97 140 200 236 198 259 315 277 270 334 306 288 289 310 119 352 345 330 328 328 306
292 286 285 286 220 197 171 176 163 162 153 152 150 150 145 136 111 85 81 84 128 135 162 243 293 261 239 185 187 190 193 159 134 174 187 232 234 225 224 252 248 229 240 238 276 293 258 287 319 326 317 333 328 295
283 271 260 273 209 194 170 170 158 154 150 148 148 145 137 132 118 85 70 270 223 126 112 110 322 275 354 180 185 176 169 151 175 184 216 233 242 212 242 243 242 242 240 241 275 294 270 305 312 320 307 318 319 298
280 233 223 237 178 165 153 150 150 144 142 141 142 139 136 126 82 112 165 163 164 91 95 359 350 284 301 100 114 139 170 177 184 214 219 229 237 210 241 251 256 265 286 295 307 317 280 266 285 308 303 306 319 300
244 196 196 171 144 151 174 152 144 138 135 138 133 131 126 111 117 50 40 114 83 88 58 80 293 310 158 152 183 166 148 176 205 223 218 218 232 229 250 256 260 264 261 262 268 270 263 271 262 263 284 291 295 275
202 179 167 170 159 141 173 141 132 135 134 126 120 108 76 46 84 99 131 79 58 93 121 120 207 243 15 68 121 158 151 193 229 221 220 191 220 231 249 246 245 254 249 262 267 273 273 269 249 240 248 271 292 276
194 169 152 151 157 154 136 126 137 133 126 121 109 75 102 216 123 124 21 40 31 20 97 226 196 254 225 36 188 167 207 226 225 218 150 219 246 242 245 250 260 262 273 279 274 271 268 265 286 254 276 240 256 278
333 183 180 177 186 168 147 144 134 130 127 77 91 86 110 141 72 49 91 97 105 322 208 232 210 230 197 213 262 206 255 271 247 195 201 230 263 278 289 291 285 287 298 289 255 256 256 261 270 271 264 254 247 257
343 187 185 241 187 163 144 139 140 115 132 133 109 101 105 87 73 101 158 173 202 222 187 194 195 198 210 181 196 207 218 222 251 150 228 239 49 5 352 342 328 320 305 311 323 268 268 263 266 269 277 269 243 222
322 266 232 162 139 139 142 142 116 122 118 99 78 104 112 133 95 167 179 190 198 195 188 171 178 171 150 202 212 201 226 240 345 235 261 58 287 286 343 330 318 314 313 309 332 353 349 322 294 274 279 268 249 203
325 315 216 151 151 145 144 133 139 128 84 88 119 125 169 175 215 191 181 172 186 165 160 152 123 175 154 181 228 239 220 192 255 235 293 239 253 278 278 321 320 312 301 295 306 328 336 325 317 308 283 271 238 188
315 296 145 144 146 144 141 145 128 55 89 107 124 160 179 178 148 173 144 128 164 143 136 136 118 159 169 238 225 277 215 242 209 185 229 231 253 258 285 280 294 283 294 314 321 324 312 312 310 314 305 291 270 174
311 156 145 145 143 142 134 105 53 76 61 93 95 108 111 125 148 145 172 196 164 140 105 106 179 187 217 217 182 231 241 220 170 215 225 242 244 221 249 257 248 261 275 318 332 333 322 312 314 309 299 285 248 181
79 298 150 143 140 127 110 68 55 40 53 101 136 88 131 126 178 175 165 186 144 149 180 183 200 213 160 215 240 201 214 186 220 249 240 238 262 287 291 288 283 292 308 325 315 315 309 306 308 310 335 349 202 175
192 139 136 135 117 96 61 52 88 118 153 151 156 174 159 161 139 146 172 157 140 186 159 210 175 211 217 219 228 223 226 277 285 253 260 254 264 279 280 282 290 287 310 295 297 305 308 316 324 329 332 12 84 115
144 136 138 138 130 103 98 87 73 117 124 159 118 121 142 166 241 106 149 126 162 172 145 187 234 219 213 213 229 244 230 213 228 257 263 250 224 255 273 279 280 282 266 264 266 278 294 300 300 308 306 269 169 156
139 137 146 139 88 73 92 91 186 120 163 171 141 161 167 189 179 188 182 155 172 186 201 213 216 218 206 214 196 233 236 210 218 267 280 283 262 241 237 257 278 283 278 278 262 248 278 288 275 279 262 223 194 178
122 139 112 83 74 69 95 142 122 176 143 177 157 149 152 163 201 166 177 165 182 222 230 222 235 236 221 242 230 229 240 218 243 249 280 288 291 277 277 257 244 256 258 270 275 273 238 264 258 209 224 215 190 166
98 111 91 34 62 42 82 165 111 139 121 127 124 147 154 172 196 203 151 182 225 229 222 224 233 238 246 246 246 219 240 220 240 254 258 266 275 273 269 264 255 251 239 240 246 253 250 240 245 206 191 176 149 142
102 80 66 74 94 72 80 25 96 157 128 168 137 157 198 203 211 140 232 219 242 224 219 225 236 240 244 254 251 237 205 221 256 251 259 264 267 268 268 265 256 260 267 255 233 239 233 191 185 171 162 162 156 149
66 71 91 92 87 120 124 149 106 118 94 157 147 174 214 212 131 210 245 241 243 227 195 230 229 249 256 244 249 252 247 204 230 254 251 264 277 277 271 270 270 260 251 267 254 220 190 183 166 162 163 171 176 167
94 107 108 93 95 113 103 84 59 79 141 188 114 271 247 152 179 236 233 259 260 259 248 239 226 219 230 249 251 245 227 196 228 246 263 240 258 271 276 268 260 256 258 250 235 212 188 173 172 169 168 174 176 173
91 140 135 159 156 133 161 133 171 174 145 151 217 267 109 124 205 246 231 238 235 232 234 211 221 227 237 231 251 256 254 204 217 236 253 233 236 246 267 272 279 274 215 226 232 215 195 181 180 172 171 175 173 165
117 168 171 216 128 129 96 80 129 127 158 177 202 166 139 203 237 242 254 218 219 228 224 221 198 217 240 257 237 241 234 192 209 234 255 228 237 237 238 245 255 255 181 203 198 194 187 181 177 175 172 171 172 168
139 149 147 176 107 99 125 122 157 186 194 185 114 179 195 206 226 226 217 228 218 236 236 241 222 227 236 242 246 254 245 222 246 267 274 274 249 238 230 237 236 219 201 186 180 171 172 172 170 169 165 160 153 154
114 134 110 64 84 103 179 165 199 219 193 164 181 217 232 222 231 239 257 239 231 249 268 271 265 237 245 249 249 246 252 240 256 269 273 279 281 241 195 202 177 139 132 129 134 146 153 154 156 155 150 147 140 138
177 177 100 86 147 207 225 177 213 234 237 218 249 305 282 261 249 242 266 268 261 261 262 262 265 252 255 259 268 254 229 228 220 237 254 263 272 137 148 138 126 121 121 119 119 116 113 113 115 118 122 126 131 132
122 102 83 112 206 241 232 256 271 242 236 229 211 223 257 288 295 241 245 252 263 271 271 268 263 240 248 255 246 265 277 213 224 238 237 205 149 141 129 124 124 123 123 124 125 125 125 125 127 128 131 133 136 133
113 157 132 156 254 274 96 237 271 259 250 230 244 226 271 287 275 275 221 132 316 297 275 267 282 278 243 245 247 247 238 235 237 224 171 143 132 126 122 121 119 120 120 120 124 128 127 128 131 131 131 132 132 132
114 107 64 72 17 349 318 15 338 308 275 268 269 225 222 210 247 269 280 218 244 281 296 292 276 263 264 258 246 249 233 193 149 121 121 129 129 126 122 120 120 121 123 124 126 129 126 128 129 132 132 131 130 131